Location: Augustenthal
(51.7167°N, 10.2833°E)
Time: 20:46:09
(UTC+00:00)

CZ-2D R/B - Pass Details

Date: 18 May 2021
Orbit: 791 x 846 km, 98.7° (Epoch: 21 June)

Event Time Altitude Azimuth Distance (km) Brightness Sun altitude
Rises 23:31:33 0° 27° (NNE) 3,379 6.6 -18.4°
Reaches altitude 10° 23:34:52 10° 48° (NE) 2,429 5.2 -18.4°
Maximum altitude 23:38:11 16° 87° (E) 1,995 4.2 -18.3°
Drops below altitude 10° 23:41:27 10° 125° (SE) 2,395 4.3 -18.3°
Enters shadow 23:41:41 - 127° (SE) 2,448 4.3 -18.3°
